Location: St. Louis
(38.6270°N, 90.1994°W)
Time: 17:15:42
(UTC-06:00)

X-37B - Pass Details

Date: 09 December 2022
Orbit: 277 x 277 km, 45.0° (Epoch: 01 November)

Event Time Altitude Azimuth Distance (km) Brightness Sun altitude
Rises 17:28:19 0° 255° (WSW) 1,907 6.3 -9.5°
Reaches altitude 10° 17:30:16 10° 262° (W) 1,096 4.3 -9.8°
Maximum altitude 17:32:39 47° 338° (NNW) 379 0.5 -10.2°
Enters shadow 17:34:13 18° 48° (NE) 778 1.5 -10.5°
